Location: Cluj-Napoca
(46.7712°N, 23.6236°E)
Time: 11:06:21
(UTC+03:00)

ISS - Pass Details

Date: 10 May 2021
Orbit: 417 x 422 km, 51.6° (Epoch: 15 May)

Event Time Altitude Azimuth Distance (km) Brightness Sun altitude
Exits shadow 02:17:27 35° 35° (NE) 694 -2.2 -24.4°
Drops below altitude 10° 02:19:44 10° 60° (ENE) 1,506 -0.4 -24.3°
Sets 02:21:53 0° 66° (ENE) 2,373 0.6 -24.2°
